Year,Month,Day,Hour,Minute,Value (Times are PST for temperature in C)
2015,07,21,00,00,18.10
2015,07,21,00,01,18.10
2015,07,21,00,02,18.10
2015,07,21,00,03,18.10
2015,07,21,00,04,18.00
2015,07,21,00,05,18.00
2015,07,21,00,06,18.00
2015,07,21,00,07,18.00
2015,07,21,00,08,18.00
2015,07,21,00,09,18.00
2015,07,21,00,10,18.10
2015,07,21,00,11,18.10
2015,07,21,00,12,18.20
2015,07,21,00,13,18.20
2015,07,21,00,14,18.20
2015,07,21,00,15,18.30
2015,07,21,00,16,18.30
2015,07,21,00,17,18.30
2015,07,21,00,18,18.40
2015,07,21,00,19,18.40
2015,07,21,00,20,18.40
2015,07,21,00,21,18.50
2015,07,21,00,22,18.50
2015,07,21,00,23,18.60
2015,07,21,00,24,18.60
2015,07,21,00,25,18.60
2015,07,21,00,26,18.60
2015,07,21,00,27,18.60
2015,07,21,00,28,18.70
2015,07,21,00,29,18.70
2015,07,21,00,30,18.70
2015,07,21,00,31,18.70
2015,07,21,00,32,18.70
2015,07,21,00,33,18.70
2015,07,21,00,34,18.70
2015,07,21,00,35,18.70
2015,07,21,00,36,18.70
2015,07,21,00,37,18.70
2015,07,21,00,38,18.70
2015,07,21,00,39,18.70
2015,07,21,00,40,18.70
2015,07,21,00,41,18.70
2015,07,21,00,42,18.70
2015,07,21,00,43,18.70
2015,07,21,00,44,18.70
2015,07,21,00,45,18.70
2015,07,21,00,46,18.70
2015,07,21,00,47,18.70
2015,07,21,00,48,18.70
2015,07,21,00,49,18.70
2015,07,21,00,50,18.70
2015,07,21,00,51,18.70
2015,07,21,00,52,18.70
2015,07,21,00,53,18.60
2015,07,21,00,54,18.60
2015,07,21,00,55,18.60
2015,07,21,00,56,18.60
2015,07,21,00,57,18.60
2015,07,21,00,58,18.60
2015,07,21,00,59,18.60
2015,07,21,01,00,18.60
2015,07,21,01,01,18.60
2015,07,21,01,02,18.60
2015,07,21,01,03,18.60
2015,07,21,01,04,18.60
2015,07,21,01,05,18.50
2015,07,21,01,06,18.50
2015,07,21,01,07,18.50
2015,07,21,01,08,18.50
2015,07,21,01,09,18.50
2015,07,21,01,10,18.50
2015,07,21,01,11,18.50
2015,07,21,01,12,18.50
2015,07,21,01,13,18.50
2015,07,21,01,14,18.50
2015,07,21,01,15,18.50
2015,07,21,01,16,18.50
2015,07,21,01,17,18.50
2015,07,21,01,18,18.50
2015,07,21,01,19,18.40
2015,07,21,01,20,18.40
2015,07,21,01,21,18.40
2015,07,21,01,22,18.40
2015,07,21,01,23,18.40
2015,07,21,01,24,18.40
2015,07,21,01,25,18.40
2015,07,21,01,26,18.40
2015,07,21,01,27,18.40
2015,07,21,01,28,18.40
2015,07,21,01,29,18.40
2015,07,21,01,30,18.40
2015,07,21,01,31,18.40
2015,07,21,01,32,18.40
2015,07,21,01,33,18.40
2015,07,21,01,34,18.40
2015,07,21,01,35,18.30
2015,07,21,01,36,18.30
2015,07,21,01,37,18.30
2015,07,21,01,38,18.30
2015,07,21,01,39,18.30
2015,07,21,01,40,18.30
2015,07,21,01,41,18.30
2015,07,21,01,42,18.30
2015,07,21,01,43,18.30
2015,07,21,01,44,18.20
2015,07,21,01,45,18.20
2015,07,21,01,46,18.20
2015,07,21,01,47,18.10
2015,07,21,01,48,18.10
2015,07,21,01,49,18.10
2015,07,21,01,50,18.10
2015,07,21,01,51,18.10
2015,07,21,01,52,18.10
2015,07,21,01,53,18.00
2015,07,21,01,54,18.00
2015,07,21,01,55,18.00
2015,07,21,01,56,17.90
2015,07,21,01,57,17.90
2015,07,21,01,58,17.90
2015,07,21,01,59,17.90
2015,07,21,02,00,17.80
2015,07,21,02,01,17.80
2015,07,21,02,02,17.80
2015,07,21,02,03,17.80
2015,07,21,02,04,17.80
2015,07,21,02,05,17.80
2015,07,21,02,06,17.80
2015,07,21,02,07,17.70
2015,07,21,02,08,17.70
2015,07,21,02,09,17.70
2015,07,21,02,10,17.70
2015,07,21,02,11,17.70
2015,07,21,02,12,17.70
2015,07,21,02,13,17.60
2015,07,21,02,14,17.60
2015,07,21,02,15,17.60
2015,07,21,02,16,17.60
2015,07,21,02,17,17.60
2015,07,21,02,18,17.60
2015,07,21,02,19,17.60
2015,07,21,02,20,17.60
2015,07,21,02,21,17.50
2015,07,21,02,22,17.50
2015,07,21,02,23,17.50
2015,07,21,02,24,17.50
2015,07,21,02,25,17.50
2015,07,21,02,26,17.50
2015,07,21,02,27,17.40
2015,07,21,02,28,17.40
2015,07,21,02,29,17.40
2015,07,21,02,30,17.40
2015,07,21,02,31,17.40
2015,07,21,02,32,17.40
2015,07,21,02,33,17.40
2015,07,21,02,34,17.40
2015,07,21,02,35,17.40
2015,07,21,02,36,17.40
2015,07,21,02,37,17.40
2015,07,21,02,38,17.40
2015,07,21,02,39,17.40
2015,07,21,02,40,17.40
2015,07,21,02,41,17.40
2015,07,21,02,42,17.40
2015,07,21,02,43,17.40
2015,07,21,02,44,17.40
2015,07,21,02,45,17.40
2015,07,21,02,46,17.40
2015,07,21,02,47,17.40
2015,07,21,02,48,17.40
2015,07,21,02,49,17.40
2015,07,21,02,50,17.40
2015,07,21,02,51,17.30
2015,07,21,02,52,17.30
2015,07,21,02,53,17.30
2015,07,21,02,54,17.30
2015,07,21,02,55,17.30
2015,07,21,02,56,17.30
2015,07,21,02,57,17.20
2015,07,21,02,58,17.20
2015,07,21,02,59,17.20
2015,07,21,03,00,17.20
2015,07,21,03,01,17.20
2015,07,21,03,02,17.20
2015,07,21,03,03,17.20
2015,07,21,03,04,17.20
2015,07,21,03,05,17.20
2015,07,21,03,06,17.20
2015,07,21,03,07,17.20
2015,07,21,03,08,17.20
2015,07,21,03,09,17.20
2015,07,21,03,10,17.20
2015,07,21,03,11,17.20
2015,07,21,03,12,17.20
2015,07,21,03,13,17.20
2015,07,21,03,14,17.20
2015,07,21,03,15,17.20
2015,07,21,03,16,17.20
2015,07,21,03,17,17.20
2015,07,21,03,18,17.20
2015,07,21,03,19,17.20
2015,07,21,03,20,17.20
2015,07,21,03,21,17.30
2015,07,21,03,22,17.30
2015,07,21,03,23,17.30
2015,07,21,03,24,17.30
2015,07,21,03,25,17.30
2015,07,21,03,26,17.30
2015,07,21,03,27,17.30
2015,07,21,03,28,17.30
2015,07,21,03,29,17.30
2015,07,21,03,30,17.30
2015,07,21,03,31,17.30
2015,07,21,03,32,17.30
2015,07,21,03,33,17.30
2015,07,21,03,34,17.30
2015,07,21,03,35,17.30
2015,07,21,03,36,17.30
2015,07,21,03,37,17.30
2015,07,21,03,38,17.30
2015,07,21,03,39,17.30
2015,07,21,03,40,17.30
2015,07,21,03,41,17.30
2015,07,21,03,42,17.30
2015,07,21,03,43,17.30
2015,07,21,03,44,17.30
2015,07,21,03,45,17.30
2015,07,21,03,46,17.30
2015,07,21,03,47,17.30
2015,07,21,03,48,17.40
2015,07,21,03,49,17.40
2015,07,21,03,50,17.40
2015,07,21,03,51,17.40
2015,07,21,03,52,17.40
2015,07,21,03,53,17.40
2015,07,21,03,54,17.40
2015,07,21,03,55,17.40
2015,07,21,03,56,17.40
2015,07,21,03,57,17.40
2015,07,21,03,58,17.40
2015,07,21,03,59,17.40
2015,07,21,04,00,17.40
2015,07,21,04,01,17.40
2015,07,21,04,02,17.40
2015,07,21,04,03,17.40
2015,07,21,04,04,17.40
2015,07,21,04,05,17.40
2015,07,21,04,06,17.40
2015,07,21,04,07,17.40
2015,07,21,04,08,17.40
2015,07,21,04,09,17.40
2015,07,21,04,10,17.40
2015,07,21,04,11,17.40
2015,07,21,04,12,17.40
2015,07,21,04,13,17.40
2015,07,21,04,14,17.40
2015,07,21,04,15,17.40
2015,07,21,04,16,17.40
2015,07,21,04,17,17.40
2015,07,21,04,18,17.40
2015,07,21,04,19,17.40
2015,07,21,04,20,17.40
2015,07,21,04,21,17.40
2015,07,21,04,22,17.40
2015,07,21,04,23,17.40
2015,07,21,04,24,17.40
2015,07,21,04,25,17.40
2015,07,21,04,26,17.40
2015,07,21,04,27,17.30
2015,07,21,04,28,17.30
2015,07,21,04,29,17.30
2015,07,21,04,30,17.30
2015,07,21,04,31,17.30
2015,07,21,04,32,17.30
2015,07,21,04,33,17.30
2015,07,21,04,34,17.30
2015,07,21,04,35,17.30
2015,07,21,04,36,17.30
2015,07,21,04,37,17.30
2015,07,21,04,38,17.30
2015,07,21,04,39,17.20
2015,07,21,04,40,17.20
2015,07,21,04,41,17.20
2015,07,21,04,42,17.20
2015,07,21,04,43,17.20
2015,07,21,04,44,17.20
2015,07,21,04,45,17.20
2015,07,21,04,46,17.20
2015,07,21,04,47,17.20
2015,07,21,04,48,17.20
2015,07,21,04,49,17.20
2015,07,21,04,50,17.10
2015,07,21,04,51,17.10
2015,07,21,04,52,17.10
2015,07,21,04,53,17.10
2015,07,21,04,54,17.10
2015,07,21,04,55,17.10
2015,07,21,04,56,17.10
2015,07,21,04,57,17.10
2015,07,21,04,58,17.10
2015,07,21,04,59,17.10
2015,07,21,05,00,17.10
2015,07,21,05,01,17.10
2015,07,21,05,02,17.10
2015,07,21,05,03,17.20
2015,07,21,05,04,17.20
2015,07,21,05,05,17.10
2015,07,21,05,06,17.20
2015,07,21,05,07,17.20
2015,07,21,05,08,17.20
2015,07,21,05,09,17.20
2015,07,21,05,10,17.20
2015,07,21,05,11,17.20
2015,07,21,05,12,17.20
2015,07,21,05,13,17.20
2015,07,21,05,14,17.20
2015,07,21,05,15,17.20
2015,07,21,05,16,17.20
2015,07,21,05,17,17.20
2015,07,21,05,18,17.20
2015,07,21,05,19,17.20
2015,07,21,05,20,17.20
2015,07,21,05,21,17.20
2015,07,21,05,22,17.20
2015,07,21,05,23,17.20
2015,07,21,05,24,17.20
2015,07,21,05,25,17.20
2015,07,21,05,26,17.20
2015,07,21,05,27,17.20
2015,07,21,05,28,17.20
2015,07,21,05,29,17.20
2015,07,21,05,30,17.20
2015,07,21,05,31,17.20
2015,07,21,05,32,17.20
2015,07,21,05,33,17.20
2015,07,21,05,34,17.20
2015,07,21,05,35,17.20
2015,07,21,05,36,17.20
2015,07,21,05,37,17.20
2015,07,21,05,38,17.20
2015,07,21,05,39,17.20
2015,07,21,05,40,17.20
2015,07,21,05,41,17.20
2015,07,21,05,42,17.10
2015,07,21,05,43,17.10
2015,07,21,05,44,17.10
2015,07,21,05,45,17.10
2015,07,21,05,46,17.10
2015,07,21,05,47,17.10
2015,07,21,05,48,17.10
2015,07,21,05,49,17.10
2015,07,21,05,50,17.00
2015,07,21,05,51,17.00
2015,07,21,05,52,17.00
2015,07,21,05,53,17.00
2015,07,21,05,54,16.90
2015,07,21,05,55,16.90
2015,07,21,05,56,16.90
2015,07,21,05,57,16.90
2015,07,21,05,58,16.80
2015,07,21,05,59,16.80
2015,07,21,06,00,16.80
2015,07,21,06,01,16.80
2015,07,21,06,02,16.80
2015,07,21,06,03,16.80
2015,07,21,06,04,16.80
2015,07,21,06,05,16.80
2015,07,21,06,06,16.80
2015,07,21,06,07,16.80
2015,07,21,06,08,16.80
2015,07,21,06,09,16.80
2015,07,21,06,10,16.80
2015,07,21,06,11,16.80
2015,07,21,06,12,16.80
2015,07,21,06,13,16.80
2015,07,21,06,14,16.80
2015,07,21,06,15,16.80
2015,07,21,06,16,16.80
2015,07,21,06,17,16.80
2015,07,21,06,18,16.90
2015,07,21,06,19,16.90
2015,07,21,06,20,16.90
2015,07,21,06,21,16.90
2015,07,21,06,22,16.90
2015,07,21,06,23,16.90
2015,07,21,06,24,16.90
2015,07,21,06,25,17.00
2015,07,21,06,26,17.00
2015,07,21,06,27,17.00
2015,07,21,06,28,17.10
2015,07,21,06,29,17.10
2015,07,21,06,30,17.10
2015,07,21,06,31,17.10
2015,07,21,06,32,17.10
2015,07,21,06,33,17.20
2015,07,21,06,34,17.20
2015,07,21,06,35,17.20
2015,07,21,06,36,17.20
2015,07,21,06,37,17.20
2015,07,21,06,38,17.20
2015,07,21,06,39,17.30
2015,07,21,06,40,17.30
2015,07,21,06,41,17.30
2015,07,21,06,42,17.30
2015,07,21,06,43,17.30
2015,07,21,06,44,17.30
2015,07,21,06,45,17.30
2015,07,21,06,46,17.30
2015,07,21,06,47,17.30
2015,07,21,06,48,17.30
2015,07,21,06,49,17.30
2015,07,21,06,50,17.30
2015,07,21,06,51,17.30
2015,07,21,06,52,17.30
2015,07,21,06,53,17.30
2015,07,21,06,54,17.30
2015,07,21,06,55,17.30
2015,07,21,06,56,17.30
2015,07,21,06,57,17.30
2015,07,21,06,58,17.30
2015,07,21,06,59,17.30
2015,07,21,07,00,17.30
2015,07,21,07,01,17.30
2015,07,21,07,02,17.30
2015,07,21,07,03,17.30
2015,07,21,07,04,17.30
2015,07,21,07,05,17.20
2015,07,21,07,06,17.20
2015,07,21,07,07,17.20
2015,07,21,07,08,17.20
2015,07,21,07,09,17.20
2015,07,21,07,10,17.20
2015,07,21,07,11,17.20
2015,07,21,07,12,17.20
2015,07,21,07,13,17.20
2015,07,21,07,14,17.20
2015,07,21,07,15,17.10
2015,07,21,07,16,17.10
2015,07,21,07,17,17.10
2015,07,21,07,18,17.10
2015,07,21,07,19,17.00
2015,07,21,07,20,17.00
2015,07,21,07,21,17.00
2015,07,21,07,22,17.00
2015,07,21,07,23,16.90
2015,07,21,07,24,16.90
2015,07,21,07,25,16.90
2015,07,21,07,26,16.90
2015,07,21,07,27,16.90
2015,07,21,07,28,16.90
2015,07,21,07,29,16.90
2015,07,21,07,30,16.90
2015,07,21,07,31,16.90
2015,07,21,07,32,16.90
2015,07,21,07,33,16.90
2015,07,21,07,34,16.90
2015,07,21,07,35,16.90
2015,07,21,07,36,16.90
2015,07,21,07,37,16.90
2015,07,21,07,38,16.90
2015,07,21,07,39,16.90
2015,07,21,07,40,16.90
2015,07,21,07,41,16.90
2015,07,21,07,42,16.90
2015,07,21,07,43,16.90
2015,07,21,07,44,16.90
2015,07,21,07,45,16.90
2015,07,21,07,46,16.90
2015,07,21,07,47,16.90
2015,07,21,07,48,16.90
2015,07,21,07,49,16.90
2015,07,21,07,50,16.90
2015,07,21,07,51,16.90
2015,07,21,07,52,17.00
2015,07,21,07,53,17.00
2015,07,21,07,54,17.00
2015,07,21,07,55,17.10
2015,07,21,07,56,17.10
2015,07,21,07,57,17.10
2015,07,21,07,58,17.10
2015,07,21,07,59,17.10
2015,07,21,08,00,17.10
2015,07,21,08,01,17.10
2015,07,21,08,02,17.10
2015,07,21,08,03,17.10
2015,07,21,08,04,17.10
2015,07,21,08,05,17.10
2015,07,21,08,06,17.10
2015,07,21,08,07,17.10
2015,07,21,08,08,17.10
2015,07,21,08,09,17.10
2015,07,21,08,10,17.10
2015,07,21,08,11,17.20
2015,07,21,08,12,17.20
2015,07,21,08,13,17.20
2015,07,21,08,14,17.20
2015,07,21,08,15,17.20
2015,07,21,08,16,17.20
2015,07,21,08,17,17.20
2015,07,21,08,18,17.20
2015,07,21,08,19,17.20
2015,07,21,08,20,17.30
2015,07,21,08,21,17.30
2015,07,21,08,22,17.30
2015,07,21,08,23,17.30
2015,07,21,08,24,17.30
2015,07,21,08,25,17.30
2015,07,21,08,26,17.30
2015,07,21,08,27,17.30
2015,07,21,08,28,17.30
2015,07,21,08,29,17.30
2015,07,21,08,30,17.30
2015,07,21,08,31,17.30
2015,07,21,08,32,17.30
2015,07,21,08,33,17.20
2015,07,21,08,34,17.20
2015,07,21,08,35,17.20
2015,07,21,08,36,17.20
2015,07,21,08,37,17.20
2015,07,21,08,38,17.30
2015,07,21,08,39,17.30
2015,07,21,08,40,17.30
2015,07,21,08,41,17.30
2015,07,21,08,42,17.30
2015,07,21,08,43,17.30
2015,07,21,08,44,17.30
2015,07,21,08,45,17.30
2015,07,21,08,46,17.30
2015,07,21,08,47,17.30
2015,07,21,08,48,17.40
2015,07,21,08,49,17.40
2015,07,21,08,50,17.40
2015,07,21,08,51,17.40
2015,07,21,08,52,17.40
2015,07,21,08,53,17.40
2015,07,21,08,54,17.40
2015,07,21,08,55,17.40
2015,07,21,08,56,17.30
2015,07,21,08,57,17.30
2015,07,21,08,58,17.30
2015,07,21,08,59,17.30
2015,07,21,09,00,17.30
2015,07,21,09,01,17.30
2015,07,21,09,02,17.30
2015,07,21,09,03,17.30
2015,07,21,09,04,17.40
2015,07,21,09,05,17.40
2015,07,21,09,06,17.40
2015,07,21,09,07,17.40
2015,07,21,09,08,17.40
2015,07,21,09,09,17.40
2015,07,21,09,10,17.40
2015,07,21,09,11,17.50
2015,07,21,09,12,17.50
2015,07,21,09,13,17.50
2015,07,21,09,14,17.60
2015,07,21,09,15,17.60
2015,07,21,09,16,17.60
2015,07,21,09,17,17.60
2015,07,21,09,18,17.60
2015,07,21,09,19,17.60
2015,07,21,09,20,17.60
2015,07,21,09,21,17.60
2015,07,21,09,22,17.60
2015,07,21,09,23,17.60
2015,07,21,09,24,17.50
2015,07,21,09,25,17.50
2015,07,21,09,26,17.60
2015,07,21,09,27,17.60
2015,07,21,09,28,17.60
2015,07,21,09,29,17.60
2015,07,21,09,30,17.60
2015,07,21,09,31,17.60
2015,07,21,09,32,17.70
2015,07,21,09,33,17.70
2015,07,21,09,34,17.70
2015,07,21,09,35,17.70
2015,07,21,09,36,17.70
2015,07,21,09,37,17.70
2015,07,21,09,38,17.70
2015,07,21,09,39,17.70
2015,07,21,09,40,17.70
2015,07,21,09,41,17.70
2015,07,21,09,42,17.70
2015,07,21,09,43,17.80
2015,07,21,09,44,17.80
2015,07,21,09,45,17.80
2015,07,21,09,46,17.90
2015,07,21,09,47,17.90
2015,07,21,09,48,17.90
2015,07,21,09,49,18.00
2015,07,21,09,50,18.00
2015,07,21,09,51,18.00
2015,07,21,09,52,18.10
2015,07,21,09,53,18.10
2015,07,21,09,54,18.20
2015,07,21,09,55,18.30
2015,07,21,09,56,18.30
2015,07,21,09,57,18.40
2015,07,21,09,58,18.40
2015,07,21,09,59,18.50
2015,07,21,10,00,18.50
2015,07,21,10,01,18.60
2015,07,21,10,02,18.70
2015,07,21,10,03,18.70
2015,07,21,10,04,18.70
2015,07,21,10,05,18.70
2015,07,21,10,06,18.70
2015,07,21,10,07,18.70
2015,07,21,10,08,18.80
2015,07,21,10,09,18.90
2015,07,21,10,10,18.90
2015,07,21,10,11,19.00
2015,07,21,10,12,19.10
2015,07,21,10,13,19.10
2015,07,21,10,14,19.20
2015,07,21,10,15,19.20
2015,07,21,10,16,19.30
2015,07,21,10,17,19.30
2015,07,21,10,18,19.40
2015,07,21,10,19,19.50
2015,07,21,10,20,19.60
2015,07,21,10,21,19.60
2015,07,21,10,22,19.50
2015,07,21,10,23,19.40
2015,07,21,10,24,19.40
2015,07,21,10,25,19.40
2015,07,21,10,26,19.40
2015,07,21,10,27,19.40
2015,07,21,10,28,19.40
2015,07,21,10,29,19.40
2015,07,21,10,30,19.40
2015,07,21,10,31,19.50
2015,07,21,10,32,19.50
2015,07,21,10,33,19.50
2015,07,21,10,34,19.60
2015,07,21,10,35,19.60
2015,07,21,10,36,19.60
2015,07,21,10,37,19.50
2015,07,21,10,38,19.40
2015,07,21,10,39,19.50
2015,07,21,10,40,19.60
2015,07,21,10,41,19.60
2015,07,21,10,42,19.60
2015,07,21,10,43,19.60
2015,07,21,10,44,19.50
2015,07,21,10,45,19.50
2015,07,21,10,46,19.40
2015,07,21,10,47,19.40
2015,07,21,10,48,19.40
2015,07,21,10,49,19.40
2015,07,21,10,50,19.50
2015,07,21,10,51,19.50
2015,07,21,10,52,19.60
2015,07,21,10,53,19.60
2015,07,21,10,54,19.60
2015,07,21,10,55,19.70
2015,07,21,10,56,19.70
2015,07,21,10,57,19.70
2015,07,21,10,58,19.80
2015,07,21,10,59,19.80
2015,07,21,11,00,19.90
2015,07,21,11,01,19.90
2015,07,21,11,02,20.00
2015,07,21,11,03,20.00
2015,07,21,11,04,20.00
2015,07,21,11,05,20.00
2015,07,21,11,06,20.00
2015,07,21,11,07,20.00
2015,07,21,11,08,20.00
2015,07,21,11,09,20.00
2015,07,21,11,10,19.80
2015,07,21,11,11,19.80
2015,07,21,11,12,19.80
2015,07,21,11,13,19.90
2015,07,21,11,14,19.90
2015,07,21,11,15,19.90
2015,07,21,11,16,19.90
2015,07,21,11,17,19.80
2015,07,21,11,18,19.80
2015,07,21,11,19,19.90
2015,07,21,11,20,19.90
2015,07,21,11,21,19.90
2015,07,21,11,22,19.80
2015,07,21,11,23,19.80
2015,07,21,11,24,19.70
2015,07,21,11,25,19.60
2015,07,21,11,26,19.50
2015,07,21,11,27,19.50
2015,07,21,11,28,19.50
2015,07,21,11,29,19.50
2015,07,21,11,30,19.50
2015,07,21,11,31,19.50
2015,07,21,11,32,19.50
2015,07,21,11,33,19.40
2015,07,21,11,34,19.40
2015,07,21,11,35,19.40
2015,07,21,11,36,19.40
2015,07,21,11,37,19.50
2015,07,21,11,38,19.60
2015,07,21,11,39,19.60
2015,07,21,11,40,19.70
2015,07,21,11,41,19.80
2015,07,21,11,42,19.80
2015,07,21,11,43,19.80
2015,07,21,11,44,19.90
2015,07,21,11,45,19.90
2015,07,21,11,46,20.00
2015,07,21,11,47,20.00
2015,07,21,11,48,20.10
2015,07,21,11,49,20.20
2015,07,21,11,50,20.30
2015,07,21,11,51,20.40
2015,07,21,11,52,20.50
2015,07,21,11,53,20.50
2015,07,21,11,54,20.60
2015,07,21,11,55,20.50
2015,07,21,11,56,20.40
2015,07,21,11,57,20.40
2015,07,21,11,58,20.50
2015,07,21,11,59,20.60
2015,07,21,12,00,20.70
2015,07,21,12,01,20.70
2015,07,21,12,02,20.70
2015,07,21,12,03,20.70
2015,07,21,12,04,20.70
2015,07,21,12,05,20.70
2015,07,21,12,06,20.70
2015,07,21,12,07,20.70
2015,07,21,12,08,20.80
2015,07,21,12,09,21.00
2015,07,21,12,10,21.10
2015,07,21,12,11,21.30
2015,07,21,12,12,21.40
2015,07,21,12,13,21.50
2015,07,21,12,14,21.60
2015,07,21,12,15,21.70
2015,07,21,12,16,21.70
2015,07,21,12,17,21.80
2015,07,21,12,18,21.70
2015,07,21,12,19,21.60
2015,07,21,12,20,21.30
2015,07,21,12,21,21.10
2015,07,21,12,22,21.00
2015,07,21,12,23,20.90
2015,07,21,12,24,20.90
2015,07,21,12,25,21.00
2015,07,21,12,26,21.10
2015,07,21,12,27,21.20
2015,07,21,12,28,21.30
2015,07,21,12,29,21.50
2015,07,21,12,30,21.60
2015,07,21,12,31,21.70
2015,07,21,12,32,21.70
2015,07,21,12,33,21.80
2015,07,21,12,34,22.00
2015,07,21,12,35,22.00
2015,07,21,12,36,22.10
2015,07,21,12,37,22.00
2015,07,21,12,38,22.10
2015,07,21,12,39,22.20
2015,07,21,12,40,22.30
2015,07,21,12,41,22.40
2015,07,21,12,42,22.40
2015,07,21,12,43,22.50
2015,07,21,12,44,22.50
2015,07,21,12,45,22.60
2015,07,21,12,46,22.60
2015,07,21,12,47,22.70
2015,07,21,12,48,22.70
2015,07,21,12,49,22.80
2015,07,21,12,50,22.80
2015,07,21,12,51,22.90
2015,07,21,12,52,23.10
2015,07,21,12,53,23.30
2015,07,21,12,54,23.40
2015,07,21,12,55,23.50
2015,07,21,12,56,23.50
2015,07,21,12,57,23.60
2015,07,21,12,58,23.60
2015,07,21,12,59,23.60
2015,07,21,13,00,23.50
2015,07,21,13,01,23.50
2015,07,21,13,02,23.50
2015,07,21,13,03,23.60
2015,07,21,13,04,23.70
2015,07,21,13,05,23.80
2015,07,21,13,06,23.80
2015,07,21,13,07,23.80
2015,07,21,13,08,23.80
2015,07,21,13,09,23.90
2015,07,21,13,10,23.90
2015,07,21,13,11,23.90
2015,07,21,13,12,23.90
2015,07,21,13,13,23.80
2015,07,21,13,14,23.80
2015,07,21,13,15,23.70
2015,07,21,13,16,23.60
2015,07,21,13,17,23.50
2015,07,21,13,18,23.40
2015,07,21,13,19,23.30
2015,07,21,13,20,23.20
2015,07,21,13,21,23.00
2015,07,21,13,22,22.90
2015,07,21,13,23,22.80
2015,07,21,13,24,22.70
2015,07,21,13,25,22.60
2015,07,21,13,26,22.60
2015,07,21,13,27,22.50
2015,07,21,13,28,22.40
2015,07,21,13,29,22.30
2015,07,21,13,30,22.30
2015,07,21,13,31,22.40
2015,07,21,13,32,22.50
2015,07,21,13,33,22.60
2015,07,21,13,34,22.70
2015,07,21,13,35,22.80
2015,07,21,13,36,22.80
2015,07,21,13,37,22.80
2015,07,21,13,38,22.80
2015,07,21,13,39,22.80
2015,07,21,13,40,22.90
2015,07,21,13,41,22.90
2015,07,21,13,42,22.90
2015,07,21,13,43,22.80
2015,07,21,13,44,22.80
2015,07,21,13,45,22.80
2015,07,21,13,46,22.80
2015,07,21,13,47,22.80
2015,07,21,13,48,22.90
2015,07,21,13,49,22.90
2015,07,21,13,50,23.00
2015,07,21,13,51,23.10
2015,07,21,13,52,23.20
2015,07,21,13,53,23.30
2015,07,21,13,54,23.30
2015,07,21,13,55,23.30
2015,07,21,13,56,23.30
2015,07,21,13,57,23.40
2015,07,21,13,58,23.40
2015,07,21,13,59,23.40
2015,07,21,14,00,23.50
2015,07,21,14,01,23.60
2015,07,21,14,02,23.50
2015,07,21,14,03,23.50
2015,07,21,14,04,23.50
2015,07,21,14,05,23.50
2015,07,21,14,06,23.50
2015,07,21,14,07,23.60
2015,07,21,14,08,23.60
2015,07,21,14,09,23.60
2015,07,21,14,10,23.60
2015,07,21,14,11,23.60
2015,07,21,14,12,23.70
2015,07,21,14,13,23.70
2015,07,21,14,14,23.70
2015,07,21,14,15,23.70
2015,07,21,14,16,23.70
2015,07,21,14,17,23.60
2015,07,21,14,18,23.50
2015,07,21,14,19,23.40
2015,07,21,14,20,23.30
2015,07,21,14,21,23.20
2015,07,21,14,22,23.20
2015,07,21,14,23,23.20
2015,07,21,14,24,23.20
2015,07,21,14,25,23.10
2015,07,21,14,26,23.10
2015,07,21,14,27,23.10
2015,07,21,14,28,23.20
2015,07,21,14,29,23.20
2015,07,21,14,30,23.20
2015,07,21,14,31,23.30
2015,07,21,14,32,23.30
2015,07,21,14,33,23.20
2015,07,21,14,34,23.10
2015,07,21,14,35,23.10
2015,07,21,14,36,23.00
2015,07,21,14,37,23.00
2015,07,21,14,38,23.00
2015,07,21,14,39,23.10
2015,07,21,14,40,23.10
2015,07,21,14,41,23.20
2015,07,21,14,42,23.30
2015,07,21,14,43,23.40
2015,07,21,14,44,23.50
2015,07,21,14,45,23.60
2015,07,21,14,46,23.80
2015,07,21,14,47,23.80
2015,07,21,14,48,23.90
2015,07,21,14,49,23.90
2015,07,21,14,50,24.00
2015,07,21,14,51,24.10
2015,07,21,14,52,24.20
2015,07,21,14,53,24.30
2015,07,21,14,54,24.40
2015,07,21,14,55,24.40
2015,07,21,14,56,24.50
2015,07,21,14,57,24.50
2015,07,21,14,58,24.60
2015,07,21,14,59,24.60
2015,07,21,15,00,24.60
2015,07,21,15,01,24.70
2015,07,21,15,02,24.70
2015,07,21,15,03,24.70
2015,07,21,15,04,24.80
2015,07,21,15,05,24.80
2015,07,21,15,06,24.90
2015,07,21,15,07,24.90
2015,07,21,15,08,24.90
2015,07,21,15,09,25.00
2015,07,21,15,10,25.10
2015,07,21,15,11,25.20
2015,07,21,15,12,25.20
2015,07,21,15,13,25.20
2015,07,21,15,14,25.20
2015,07,21,15,15,25.20
2015,07,21,15,16,25.20
2015,07,21,15,17,25.10
2015,07,21,15,18,25.10
2015,07,21,15,19,25.00
2015,07,21,15,20,24.90
2015,07,21,15,21,24.80
2015,07,21,15,22,24.80
2015,07,21,15,23,24.70
2015,07,21,15,24,24.70
2015,07,21,15,25,24.70
2015,07,21,15,26,24.70
2015,07,21,15,27,24.70
2015,07,21,15,28,24.70
2015,07,21,15,29,24.60
2015,07,21,15,30,24.60
2015,07,21,15,31,24.60
2015,07,21,15,32,24.60
2015,07,21,15,33,24.60
2015,07,21,15,34,24.70
2015,07,21,15,35,24.60
2015,07,21,15,36,24.60
2015,07,21,15,37,24.60
2015,07,21,15,38,24.60
2015,07,21,15,39,24.60
2015,07,21,15,40,24.60
2015,07,21,15,41,24.70
2015,07,21,15,42,24.70
2015,07,21,15,43,24.80
2015,07,21,15,44,24.80
2015,07,21,15,45,24.90
2015,07,21,15,46,25.00
2015,07,21,15,47,25.00
2015,07,21,15,48,25.00
2015,07,21,15,49,25.00
2015,07,21,15,50,25.00
2015,07,21,15,51,25.00
2015,07,21,15,52,25.10
2015,07,21,15,53,25.10
2015,07,21,15,54,25.10
2015,07,21,15,55,25.20
2015,07,21,15,56,25.20
2015,07,21,15,57,25.20
2015,07,21,15,58,25.20
2015,07,21,15,59,25.30
2015,07,21,16,00,25.30
2015,07,21,16,01,25.40
2015,07,21,16,02,25.40
2015,07,21,16,03,25.50
2015,07,21,16,04,25.50
2015,07,21,16,05,25.40
2015,07,21,16,06,25.40
2015,07,21,16,07,25.40
2015,07,21,16,08,25.30
2015,07,21,16,09,25.30
2015,07,21,16,10,25.20
2015,07,21,16,11,25.10
2015,07,21,16,12,25.00
2015,07,21,16,13,24.90
2015,07,21,16,14,24.90
2015,07,21,16,15,24.80
2015,07,21,16,16,24.80
2015,07,21,16,17,24.80
2015,07,21,16,18,24.80
2015,07,21,16,19,24.80
2015,07,21,16,20,24.70
2015,07,21,16,21,24.80
2015,07,21,16,22,24.80
2015,07,21,16,23,24.80
2015,07,21,16,24,24.80
2015,07,21,16,25,24.90
2015,07,21,16,26,24.90
2015,07,21,16,27,24.90
2015,07,21,16,28,24.90
2015,07,21,16,29,24.90
2015,07,21,16,30,25.00
2015,07,21,16,31,24.90
2015,07,21,16,32,24.90
2015,07,21,16,33,24.80
2015,07,21,16,34,24.70
2015,07,21,16,35,24.60
2015,07,21,16,36,24.60
2015,07,21,16,37,24.60
2015,07,21,16,38,24.60
2015,07,21,16,39,24.60
2015,07,21,16,40,24.50
2015,07,21,16,41,24.40
2015,07,21,16,42,24.40
2015,07,21,16,43,24.40
2015,07,21,16,44,24.40
2015,07,21,16,45,24.40
2015,07,21,16,46,24.40
2015,07,21,16,47,24.40
2015,07,21,16,48,24.40
2015,07,21,16,49,24.30
2015,07,21,16,50,24.20
2015,07,21,16,51,24.10
2015,07,21,16,52,24.10
2015,07,21,16,53,24.00
2015,07,21,16,54,24.00
2015,07,21,16,55,24.00
2015,07,21,16,56,24.00
2015,07,21,16,57,24.00
2015,07,21,16,58,24.00
2015,07,21,16,59,24.10
2015,07,21,17,00,24.10
2015,07,21,17,01,24.10
2015,07,21,17,02,24.20
2015,07,21,17,03,24.20
2015,07,21,17,04,24.20
2015,07,21,17,05,24.30
2015,07,21,17,06,24.30
2015,07,21,17,07,24.30
2015,07,21,17,08,24.40
2015,07,21,17,09,24.40
2015,07,21,17,10,24.30
2015,07,21,17,11,24.30
2015,07,21,17,12,24.10
2015,07,21,17,13,24.00
2015,07,21,17,14,23.90
2015,07,21,17,15,23.90
2015,07,21,17,16,23.80
2015,07,21,17,17,23.80
2015,07,21,17,18,23.70
2015,07,21,17,19,23.60